www.pogodaiklimat.ru

Погода и климат >> Архив погоды >> Гана >> Акюс


ПОГОДА в Акюсе

  • Прогноз погоды в Акюсе
  • Монитор погоды в Акюсе

АРХИВ ПОГОДЫ в Акюсе

Время (UTC), дата Ветер
(напр.,м/с)
 
Видим.   Явления Облачность Т
(С)
Тd
(С)
f
(%)
Тe
(С)
Тes
(С)
Комфортность P
(гПа)
Po
(гПа)
Тmin
(С)
Tmax
(С)
R
(мм)
R24
(мм)
S
(см)
09 15.08 ЮЗ 2 14 км 8/8 360 м
[Cu Sc]
+27.1 +23.9 83 +37 +40 очень
душно
1016.1 1013.9
12 15.08 ЮЗ 1 14 км 9/9 360 м
[Cu Sc]
+29.9 +23.6 69 +41 +43 опасность
перегрева
1015.1 1012.9
15 15.08 ЮЗ 2 14 км 5/5 450 м
[Cu med, cong Ac trans]
+32.0 +23.4 60 +43 +49 опасность
перегрева
1012.6 1010.4
18 15.08 ЮВ 2 14 км 5/5 360 м
[Sc]
+28.1 +23.4 76 +38 +38 очень
душно
1012.9 1010.7 +32.0
09 16.08 ЮЗ 3 14 км 8/8 360 м
[Cu Sc]
+28.5 +23.0 72 +38 +40 очень
душно
1015.7 1013.5
12 16.08 ЮЗ 2 14 км 9/5 450 м
[Cu med, cong Cs]
+31.5 +21.8 56 +40 +50 очень
душно
1013.5 1011.3
15 16.08 ЮЗ 3 14 км 9/5 480 м
[Cu Sc Ac trans]
+30.5 +22.5 62 +40 +42 очень
душно
1011.7 1009.5
18 16.08 Ю 3 14 км 9/3 360 м
[Sc Ac trans Cs]
+28.5 +22.5 70 +37 +37 очень
душно
1011.1 1008.9 +31.5
00 17.08 ЮЗ 1 12 км 9/4 360 м
[Sc Cs]
+24.7 +22.5 88 +32 +32 очень
душно
1013.9 1011.7
03 17.08 штиль 0 12 км 9/0
[Cs]
+24.0 +22.6 92 +31 +31 очень
душно
1013.0 1010.8
06 17.08 штиль 0 14 км 9/0
[Cs]
+25.5 +21.8 80 +33 +33 очень
душно
1013.5 1011.3 +22.3
09 17.08 ЮЗ 1 14 км 6/5 450 м
[Cu med, cong Ci sp]
+29.0 +23.5 72 +39 +46 очень
душно
1014.8 1012.6
12 17.08 ЮЗ 1 16 км 8/8 480 м
[Cu med, cong]
+31.1 +23.2 63 +42 +47 опасность
перегрева
1013.2 1011.0
15 17.08 ЮВ 2 14 км 8/8 480 м
[Cu med, cong Ac trans]
+33.0 +23.5 58 +44 +47 опасность
перегрева
1011.0 1008.9
18 17.08 Ю 2 12 км 4/4 480 м
[Cb cap]
+29.0 +23.5 72 +39 +39 очень
душно
1010.8 1008.6 +33.0
21 17.08 Ю 1 12 км ясно +25.3 +23.5 90 +34 +34 очень
душно
1013.0 1010.8
00 18.08 Ю 1 12 км 9/0
[Cs]
+24.0 +22.6 92 +31 +31 очень
душно
1012.6 1010.4
03 18.08 штиль 0 12 км 9/0
[Cs]
+22.8 +21.7 94 +31 +31 очень
душно
1011.6 1009.4
06 18.08 штиль 0 14 км 9/4 360 м
[Sc Cs]
+23.5 +22.1 92 +30 +30 очень
душно
1012.9 1010.7
12 18.08 ЮЗ 2 18 км 8/8 360 м
[Cu Sc]
+31.3 +23.4 63 +42 +46 опасность
перегрева
1014.0 1011.8
15 18.08 ЮЗ 1 10 км 9/4 450 м
[Cu med, cong Ac trans Cs]
+32.2 +23.0 58 +42 +47 опасность
перегрева
1011.0 1008.9
18 18.08 Ю 1 18 км 9/1 450 м
[Cu hum Ac trans Cs]
+29.0 +22.9 70 +39 +39 очень
душно
1010.5 1008.3 +32.5
21 18.08 ЮЗ 1 12 км ясно +26.0 +22.5 81 +34 +34 очень
душно
1012.5 1010.3
09 19.08 ЮЗ 2 14 км 9/3 360 м
[Sc Ac trans]
+28.6 +23.2 73 +39 +43 очень
душно
1014.5 1012.3
12 19.08 ЮЗ 2 16 км 9/5 360 м
[Cu Sc Ac trans]
+31.8 +23.5 62 +43 +49 опасность
перегрева
1013.5 1011.3
15 19.08 ЮВ 2 16 км 6/5 360 м
[Cu Sc]
+32.3 +23.8 61 +44 +49 опасность
перегрева
1010.0 1007.9
18 19.08 Ю 2 14 км 9/3 360 м
[Sc Ac trans]
+28.2 +23.1 74 +38 +38 очень
душно
1011.0 1008.8 +33.5
21 19.08 ЮЗ 1 12 км 8/8 360 м
[Sc]
+25.8 +23.0 85 +34 +34 очень
душно
1013.1 1010.9
00 20.08 ЮЗ 1 12 км 9/5 360 м
[Sc Cs]
+25.8 +22.9 84 +34 +34 очень
душно
1013.1 1010.9
03 20.08 штиль 0 12 км 9/5 360 м
[Sc Ac trans]
+24.8 +22.7 88 +33 +33 очень
душно
1012.1 1009.9
06 20.08 штиль 0 14 км 9/5 360 м
[Sc Cs]
+24.8 +22.3 86 +32 +32 очень
душно
1013.0 1010.8 +24.8
09 20.08 ЮЗ 1 14 км 9/4 300 м
[Cu Sc Ac trans Cs]
+28.8 +22.8 70 +38 +43 очень
душно
1014.8 1012.6
12 20.08 ЮЗ 2 14 км 9/6 360 м
[Cu Sc Ac trans Ci fib]
+30.9 +23.1 63 +41 +47 опасность
перегрева
1013.3 1011.1
18 20.08 ЮЗ 3 12 км 9/5 360 м
[Cu Sc Ac trans Cs]
+28.8 +23.6 74 +39 +39 очень
душно
1012.0 1009.8 +31.3
09 21.08 ЮЗ 1 12 км 9/9 360 м
[Cu Sc]
+28.0 +24.0 79 +39 +40 очень
душно
1015.9 1013.7
12 21.08 ЮЗ 2 10 км 9/6 360 м
[Cu Sc Ac trans]
+29.5 +24.1 73 +41 +46 опасность
перегрева
1014.4 1012.2
18 21.08 ЮЗ 1 10 км 9/9 360 м
[Cu Sc]
+27.5 +23.0 76 +37 +37 очень
душно
1012.6 1010.4

 

Местоположение метеостанции Акюс (Гана): широта 6.10 долгота 0.12 высота над уровнем моря 19 м.

В архиве по умолчанию представлена погода в Акюсе за последнюю неделю. Архивные данные за месяц целиком и за предыдущие месяцы, начиная с января 2011 года, Вы можете получить, выбрав интересующий диапазон дат из раскрывающегося списка и нажав кнопку "Ввод!".


*Определитесь, кто Вы:
робот инопланетянин человек

Внимание! Время в таблицах - всемирное. Для получения местного времени необходимо прибавить поправку, которая равна 1 ч.

Смотрите также архив погоды в соседних городах и на ближайших метеорологических станциях:

Погода в Кофоридуа (Гана) (41 км)
Погода в Тема (Гана) (55 км)
Погода в Аккра (Гана) (64 км)
Погода в Ада (Гана) (67 км)
Погода в Хо (Гана) (68 км)
Погода в Акатзи (Гана) (75 км)
Погода в Абетифи (Гана) (115 км)
Погода в Аким Ода (Гана) (123 км)
Погода в Ломе (Того) (125 км)
Погода в Таблигбо (Того) (162 км)

Пояснения к столбцам:

Ветер - указаны скорость ветра в м/с - средняя за 10 мин, порывы в срок и между сроками (в фигурных скобках) и направление, откуда дует ветер: С - северный, СВ - северо-восточный, В - восточный, ЮВ - юго-восточный, Ю - южный, ЮЗ - юго-западный, З - западный, СЗ - северо-западный.
Видимость - горизонтальная дальность видимости в метрах или километрах. При видимости от 1 до 10 км при отсутствии осадков обычно наблюдается дымка, при ухудшении видимости до 1 км и менее - туман. В сухую погоду видимость может ухудшаться дымом, пылью или мглою.
Явления - указаны атмосферные явления, наблюдавшиеся в срок или в последний час перед сроком; фигурными скобками обозначены явления, наблюдавшиеся между сроками (за 1-3 часа до срока); квадратными скобками обозначены град или гололедные отложения с указанием их диаметра в мм.
Облачность - указаны через наклонную черту общая и нижняя облачность в баллах и высота нижней границы облаков в метрах; квадратными скобками обозначены формы облаков: Ci - перистые, Cs - перисто-слоистые, Cc - перисто-кучевые, Ac - высококучевые, As - высокослоистые, Sc - слоисто-кучевые, Ns - слоисто-дождевые, Cu - кучевые, Cb - кучево-дождевые. Подробнее классификацию облаков см. в Атласе облаков (PDF).
T - Температура воздуха - температура, измеренная на высоте 2 м над землей.
Td - Температура точки росы - температура, при понижении до которой содержащийся в воздухе водяной пар достигнет насыщения.
f - Относительная влажность воздуха - влажноcть воздуха, измеренная на высоте 2 м над землей.
Te - Эффективная температура - температура, которую ощущает одетый по сезону человек в тени. Характеристика душности погоды. При расчете учитывается влияние влажности воздуха и скорости ветра на теплоощущения человека.
Tes - Эффективная температура на солнце - температура, которую ощущает человек, с поправкой на солнечный нагрев. Характеристика знойности погоды. Зависит от высоты солнца над горизонтом, облачности и скорости ветра. Ночью, в пасмурную погоду, а также при ветре 12 м/с и более поправка равна нулю.
P - Атмосферное давление - приведенное к уровню моря атмосферное давление.
Po - Атмосферное давление - измеренное на уровне метеостанции атмосферное давление.
Tmin - Минимальная температура - минимум температуры воздуха на высоте 2 м над землей.
Tmax - Максимальная температура - максимум температуры воздуха на высоте 2 м над землей.
R - Количество осадков - Количество выпавших осадков за период времени, мм. При наведении курсора мыши на число - период времени, за который выпало указанное количество осадков.
R24 - Количество осадков - Количество выпавших осадков за 24 часа, мм.
S - Снежный покров - Высота снежного покрова, см. При наведении курсора мыши на число - состояние снежного покрова и степень покрытия местности в баллах.